カタログに戻る

COSMOS 252 DEB

運用中LEO
NORAD 3561·DEBRIS·🇷🇺 Russia

打ち上げ Nov 1, 1968 から Baikonur Cosmodrome

Loading…

次のパス (今後24時間)

TLE

最新Source: Space-Track

元期: Sep 14, 2026, 14:31 UTC

1 03561U 68097P   26257.60539491  .00003053  00000-0  46149-3 0  9992
2 03561  62.2643 110.0322 0366909 343.1705  15.7438 14.39747035854092

AllMySatでCOSMOS 252 DEBをリアルタイム追跡

Download on the App Store